This is the latest recevied weather packets stored in our database for station/object KD0RIH. If no packets are shown the sender has not sent any weather packets the latest 10 day(s).
| Time | Temp. | Humidity | Pressure | Rain* | Wind** | Luminosity | Snow |
|---|---|---|---|---|---|---|---|
| 1776993915 | 22.22° C | 70% | 1001.8 hPa | 0 mm | - | 0 W/m² | - |
| 1776993612 | 22.22° C | 70% | 1001.8 hPa | 0 mm | - | 0 W/m² | - |
| 1776993309 | 22.22° C | 70% | 1001.8 hPa | 0 mm | - | 0 W/m² | - |
| 1776993006 | 22.22° C | 70% | 1001.8 hPa | 0 mm | - | 0 W/m² | - |
| 1776992703 | 22.22° C | 70% | 1001.6 hPa | 0 mm | - | 1 W/m² | - |
| 1776992399 | 22.78° C | 70% | 1001.8 hPa | 0 mm | - | 1 W/m² | - |
| 1776992096 | 22.22° C | 71% | 1001.8 hPa | 0 mm | - | 2 W/m² | - |
| 1776991793 | 22.22° C | 72% | 1001.7 hPa | 0 mm | - | 4 W/m² | - |
| 1776991490 | 22.22° C | 72% | 1001.6 hPa | 0 mm | - | 7 W/m² | - |
| 1776991185 | 22.22° C | 73% | 1001.8 hPa | 0 mm | - | 9 W/m² | - |
| 1776990881 | 22.22° C | 73% | 1001.7 hPa | 0 mm | - | 14 W/m² | - |
| 1776990579 | 22.22° C | 73% | 1001.8 hPa | 0 mm | - | 15 W/m² | - |
| 1776990276 | 22.22° C | 74% | 1002.1 hPa | 0 mm | - | 15 W/m² | - |
| 1776989976 | 22.22° C | 74% | 1002.1 hPa | 0 mm | - | 16 W/m² | - |
| 1776989672 | 22.22° C | 74% | 1002.1 hPa | 0 mm | - | 17 W/m² | - |
| 1776989368 | 22.22° C | 73% | 1001.6 hPa | 0 mm | - | 7 W/m² | - |
| 1776989065 | 22.22° C | 73% | 1001.7 hPa | 0 mm | - | 9 W/m² | - |
| 1776988762 | 22.22° C | 73% | 1001.5 hPa | 0 mm | - | 9 W/m² | - |
| 1776988459 | 22.22° C | 73% | 1001.5 hPa | 0 mm | - | 12 W/m² | - |
| 1776988155 | 22.22° C | 73% | 1001.4 hPa | 0 mm | - | 11 W/m² | - |
| 1776987852 | 22.22° C | 74% | 1001.1 hPa | 0 mm | - | 13 W/m² | - |
| 1776987548 | 22.22° C | 74% | 1001 hPa | 0 mm | - | 25 W/m² | - |
| 1776987245 | 21.67° C | 76% | 1001.1 hPa | 0 mm | - | 27 W/m² | - |
| 1776986941 | 21.67° C | 78% | 1001.3 hPa | 0 mm | - | 17 W/m² | - |
| 1776986635 | 21.11° C | 79% | 1001.1 hPa | 0 mm | - | 21 W/m² | - |
* Rain latest hour (hover to see other rain measurements)
** Current wind speed in m/s (hover to see current wind gust speed)